Meteo18 Weather Cam more information Meteo18 Weather Cam


Thunder radar more information blitzortung!


Rain radar more information rain snow radar



Select another period ( hide this area )

Units Period Custom range Directly to
Metric English Both
Daily Weekly Monthly Yearly
use both date-selectors for a custom range
previous Day
With this date

WeatherUnderground graphs for this period ( click here )


Daily Summary for Monday 10 December 2018
Time Temp. ( °C ) Dew pt. ( °C ) Wind ( km/h ) from Gust ( km/h ) Pressure ( hPa ) Humid.( % ) Rainrate ( cm )
High8,4 6,3 24,1 WNW ( 282/524 ) 27,4 1027,3 90 -
Average8,0 6,1 12,8 WNW #20/41 20,8 1026,6 88 -
Low7,7 5,9 6,4   14,5 1025,6 84 -
Daily Tabular details for Monday 10 December 2018
Time Temp. ( °C ) Dew pt. ( °C ) Wind ( km/h ) from Gust ( km/h ) Pressure ( hPa ) Humid.( % ) Rainrate ( cm )
00:04 8,4 5,9 9,7 West 22,5 1025,6 84 -
00:08 8,4 5,9 6,4 WNW 20,9 1025,6 84 -
00:14 8,4 6,0 14,3 WNW 22,5 1026,0 85 -
00:18 8,4 6,0 20,9 WSW 25,7 1026,0 85 -
00:24 8,3 5,9 13,0 West 27,4 1026,0 85 -
00:28 8,3 6,1 16,3 West 20,9 1026,0 86 -
00:34 8,2 6,0 17,7 WSW 20,9 1026,0 86 -
00:38 8,1 5,9 11,1 WNW 16,1 1026,0 86 -
00:44 8,1 5,9 13,0 West 17,7 1026,0 86 -
00:48 8,0 6,0 6,4 West 19,3 1026,0 87 -
00:54 8,1 6,1 6,4 West 20,9 1026,3 87 -
00:58 8,1 6,1 22,7 WNW 22,5 1026,3 87 -
01:04 8,1 6,2 17,7 WNW 20,9 1026,3 88 -
01:08 8,1 6,2 14,3 WNW 20,9 1026,3 88 -
01:14 8,1 6,2 6,4 West 20,9 1026,3 88 -
01:18 8,1 6,1 11,1 WSW 22,5 1026,3 87 -
01:24 8,0 6,1 13,0 West 14,5 1026,6 88 -
01:28 8,0 6,1 11,1 WSW 20,9 1026,6 88 -
01:34 7,9 6,0 6,4 WNW 14,5 1026,6 88 -
01:38 7,8 5,9 9,7 NW 20,9 1026,6 88 -
01:44 7,8 5,9 16,3 WNW 22,5 1026,6 88 -
01:48 7,8 5,9 13,0 WSW 20,9 1026,6 88 -
01:54 7,8 5,9 6,4 West 17,7 1026,6 88 -
01:58 7,8 6,1 7,9 West 20,9 1026,6 89 -
02:04 7,8 6,1 13,0 WSW 22,5 1026,6 89 -
02:08 7,8 6,1 24,1 WNW 25,7 1026,6 89 -
02:14 7,8 6,1 17,7 WNW 17,7 1026,6 89 -
02:18 7,8 6,1 16,3 WNW 27,4 1026,6 89 -
02:24 7,8 6,1 11,1 West 22,5 1026,6 89 -
02:28 7,8 6,1 9,7 WNW 22,5 1027,0 89 -
02:34 7,8 6,1 14,3 WNW 22,5 1027,0 89 -
02:38 7,8 6,3 9,7 WNW 17,7 1027,0 90 -
02:44 7,7 6,2 9,7 WNW 17,7 1027,0 90 -
02:48 7,7 6,2 11,1 West 19,3 1027,3 90 -
02:54 7,8 6,1 11,1 WNW 19,3 1027,3 89 -
02:58 7,8 6,1 11,1 West 17,7 1027,3 89 -
03:04 7,7 6,2 16,3 WNW 16,1 1027,3 90 -
03:08 7,8 6,3 14,3 WNW 27,4 1027,3 90 -
03:14 7,8 6,3 16,3 WNW 22,5 1027,3 90 -
03:18 7,8 6,3 14,3 West 19,3 1027,3 90 -
03:24 7,8 6,1 13,0 WNW 19,3 1027,3 89 -
Daily Summary for Monday 10 December 2018
Time Temp. ( °C ) Dew pt. ( °C ) Wind ( km/h ) from Gust ( km/h ) Pressure ( hPa ) Humid.( % ) Rainrate ( cm )
High8,4 6,3 24,1 WNW ( 282/524 ) 27,4 1027,3 90 -
Average8,0 6,1 12,8 WNW #20/41 20,8 1026,6 88 -
Low7,7 5,9 6,4   14,5 1025,6 84 -
Daily Tabular details for Monday 10 December 2018
Time Temp. ( °C ) Dew pt. ( °C ) Wind ( km/h ) from Gust ( km/h ) Pressure ( hPa ) Humid.( % ) Rainrate ( cm )
00:04 8,4 5,9 9,7 West 22,5 1025,6 84 -
00:08 8,4 5,9 6,4 WNW 20,9 1025,6 84 -
00:14 8,4 6,0 14,3 WNW 22,5 1026,0 85 -
00:18 8,4 6,0 20,9 WSW 25,7 1026,0 85 -
00:24 8,3 5,9 13,0 West 27,4 1026,0 85 -
00:28 8,3 6,1 16,3 West 20,9 1026,0 86 -
00:34 8,2 6,0 17,7 WSW 20,9 1026,0 86 -
00:38 8,1 5,9 11,1 WNW 16,1 1026,0 86 -
00:44 8,1 5,9 13,0 West 17,7 1026,0 86 -
00:48 8,0 6,0 6,4 West 19,3 1026,0 87 -
00:54 8,1 6,1 6,4 West 20,9 1026,3 87 -
00:58 8,1 6,1 22,7 WNW 22,5 1026,3 87 -
01:04 8,1 6,2 17,7 WNW 20,9 1026,3 88 -
01:08 8,1 6,2 14,3 WNW 20,9 1026,3 88 -
01:14 8,1 6,2 6,4 West 20,9 1026,3 88 -
01:18 8,1 6,1 11,1 WSW 22,5 1026,3 87 -
01:24 8,0 6,1 13,0 West 14,5 1026,6 88 -
01:28 8,0 6,1 11,1 WSW 20,9 1026,6 88 -
01:34 7,9 6,0 6,4 WNW 14,5 1026,6 88 -
01:38 7,8 5,9 9,7 NW 20,9 1026,6 88 -
01:44 7,8 5,9 16,3 WNW 22,5 1026,6 88 -
01:48 7,8 5,9 13,0 WSW 20,9 1026,6 88 -
01:54 7,8 5,9 6,4 West 17,7 1026,6 88 -
01:58 7,8 6,1 7,9 West 20,9 1026,6 89 -
02:04 7,8 6,1 13,0 WSW 22,5 1026,6 89 -
02:08 7,8 6,1 24,1 WNW 25,7 1026,6 89 -
02:14 7,8 6,1 17,7 WNW 17,7 1026,6 89 -
02:18 7,8 6,1 16,3 WNW 27,4 1026,6 89 -
02:24 7,8 6,1 11,1 West 22,5 1026,6 89 -
02:28 7,8 6,1 9,7 WNW 22,5 1027,0 89 -
02:34 7,8 6,1 14,3 WNW 22,5 1027,0 89 -
02:38 7,8 6,3 9,7 WNW 17,7 1027,0 90 -
02:44 7,7 6,2 9,7 WNW 17,7 1027,0 90 -
02:48 7,7 6,2 11,1 West 19,3 1027,3 90 -
02:54 7,8 6,1 11,1 WNW 19,3 1027,3 89 -
02:58 7,8 6,1 11,1 West 17,7 1027,3 89 -
03:04 7,7 6,2 16,3 WNW 16,1 1027,3 90 -
03:08 7,8 6,3 14,3 WNW 27,4 1027,3 90 -
03:14 7,8 6,3 16,3 WNW 22,5 1027,3 90 -
03:18 7,8 6,3 14,3 West 19,3 1027,3 90 -
03:24 7,8 6,1 13,0 WNW 19,3 1027,3 89 -

Download your copy of this data-set  here

Our weather-data as stored at Weather Underground. Script developed by Jim McMurry. Adapted for the template by Leuven-Template.eu

You find our weather info also at:

Weather Underground

Equipment we use:

Weather-station
Davis Vue

Weather-program
Meteobridge

Weather-server
Raspberry PI 2 B+

Provider
1 and 1

Davis Vue

Meteobridge

Raspberry PI 2 B+

1 and 1